Tracking 33446 objects as of 10-Mar-2026
HD Live streaming from Space Station
objects crossing your sky now

STARLINK-35548

Track STARLINK-35548 now!
10-day predictions
STARLINK-35548 is classified as:


NORAD ID: 66203
Int'l Code: 2025-243AC
Perigee: 481.6 km
Apogee: 483.2 km
Inclination: 53.2 °
Period: 94.1 minutes
Semi major axis: 6853 km
RCS: Unknown
Launch date: October 26, 2025
Source: United States (US)
Launch site: AIR FORCE EASTERN TEST RANGE (AFETR)
Your satellite tracking list
Your tracking list is empty




NASA's NSSDC Master Catalog

Two Line Element Set (TLE):
1 66203U 25243AC  26068.75447091  .00023677  00000-0  80914-3 0  9992
2 66203  53.1599 244.9529 0001137  65.1193 294.9926 15.30193505 20660
Source of the keplerian elements: AFSPC